Location: Go�ngahuizen
(53.0821°N, 5.8849°E)
Time: 09:54:21
(UTC+00:00)

Cosmos 2322 - Pass Details

Date: 09 April 2020
Orbit: 839 x 856 km, 71.0° (Epoch: 06 June)

Event Time Altitude Azimuth Distance (km) Brightness Sun altitude
Rises 22:49:11 0° 328° (NNW) 3,429 8.0 -28.0°
Reaches altitude 10° 22:51:45 10° 335° (NNW) 2,492 7.1 -28.1°
Maximum altitude 22:57:15 46° 48° (NE) 1,147 4.5 -28.3°
Enters shadow 22:58:17 41° 77° (ENE) 1,221 4.4 -28.3°
